Location: Niedergestelen
(46.3129°N, 7.7822°E)
Time: 13:24:21
(UTC+00:00)

Cosmos 1603 - Pass Details

Date: 01 December 2020
Orbit: 831 x 859 km, 71.0° (Epoch: 26 January)

Event Time Altitude Azimuth Distance (km) Brightness Sun altitude
Rises 17:45:02 0° 204° (SSW) 3,375 7.3 -20.2°
Reaches altitude 10° 17:47:28 10° 204° (SSW) 2,441 6.5 -20.6°
Maximum altitude 17:53:04 89° 113° (ESE) 840 3.6 -21.6°
Enters shadow 17:56:00 30° 27° (NNE) 1,463 4.6 -22.1°
